Location: Gadern
(49.5873°N, 8.8138°E)
Time: 06:12:38
(UTC+00:00)

Cosmos 1470 - Pass Details

Date: 19 May 2025
Orbit: 455 x 466 km, 82.5° (Epoch: 22 June)

Event Time Altitude Azimuth Distance (km) Brightness Sun altitude
Rises 23:04:40 0° 346° (NNW) 2,519 7.7 -20.3°
Reaches altitude 10° 23:06:47 10° 342° (NNW) 1,638 6.3 -20.4°
Maximum altitude 23:10:16 54° 264° (W) 577 2.8 -20.4°
Enters shadow 23:10:25 54° 254° (WSW) 580 2.8 -20.4°
